Regional Weather Roundup
Issued by NWS

Home | Current Version | Previous Version | Graphics & Text | Print | Product List | Glossary Off
Versions: 1 2 3 4 5 6 7 8 9 10 11 12 13 14 15 16 17 18 19 20 21 22 23 24 25 26 27 28 29 30 31 32 33 34 35 36 37 38 39 40 41 42 43 44 45 46 47 48 49 50

000
ASUS43 KMKX 041600
RWRWI

WISCONSIN REGIONAL WEATHER ROUNDUP
NATIONAL WEATHER SERVICE MILWAUKEE/SULLIVAN WI
1100 AM CDT TUE AUG 04 2015

NOTE: "FAIR" INDICATES FEW OR NO CLOUDS BELOW 12,000 FEET WITH NO
SIGNIFICANT WEATHER AND/OR OBSTRUCTIONS TO VISIBILITY.

WIZ001-002-006>008-014>016-023>028-041700-
NORTHWEST WISCONSIN

CITY           SKY/WX    TMP DP  RH WIND       PRES   REMARKS
SUPERIOR ARPT  PTSUNNY   69  54  59 NW10      29.97S
ASHLAND        PTSUNNY   69  54  58 NW6       29.97S
HAYWARD        MOSUNNY   70  52  52 W6        30.00R
SIREN          SUNNY     69  53  55 NW5       30.01S
CUMBERLAND     SUNNY     68  52  56 N9        30.01S
RICE LAKE      SUNNY     70  53  54 NW6       30.02S
CHETEK         SUNNY     70  57  62 NW3       30.00S
LADYSMITH      SUNNY     70  53  55 W10       30.02S
EAU CLAIRE     NOT AVBL
MENOMONIE      SUNNY     72  55  55 W8        30.00F
NEW RICHMOND   SUNNY     71  54  53 NW7       30.01F
OSCEOLA        SUNNY     71  55  56 NW5       30.04S
$$

WIZ003>005-009-010-017-018-041700-
NORTH CENTRAL WISCONSIN

CITY           SKY/WX    TMP DP  RH WIND       PRES   REMARKS
MANITOWISH WTR PTSUNNY   63  52  66 N7        29.98S
ARBOR VITAE    PTSUNNY   65  52  62 NW9       29.98R
WOODRUFF       PTSUNNY   65  52  62 NW9       29.98R
RHINELANDER    PTSUNNY   67  51  56 NW8       29.98S
EAGLE RIVER    PTSUNNY   63  51  65 NW9       29.96S
LAND O LAKES   PTSUNNY   65  52  64 NW8G17    29.97R
PHILLIPS       PTSUNNY   66  53  62 NW9G16    29.99S
TOMAHAWK       PTSUNNY   65  51  60 W10G21    29.99R
MEDFORD        MOSUNNY   69  54  58 NW10G16   30.00S
MERRILL        NOT AVBL
$$

WIZ029-030-035-036-043>047-041700-
CENTRAL WISCONSIN

CITY           SKY/WX    TMP DP  RH WIND       PRES   REMARKS
WAUSAU         MOSUNNY   71  49  45 NW18G26   29.96F
MOSINEE        MOSUNNY   70  54  56 NW13G18   29.99S
MARSHFIELD     MOSUNNY   72  51  47 NW15      29.99S
STEVENS POINT  SUNNY     68  50  52 NW10G17   29.98S
WAUPACA        SUNNY     73  49  42 NW13G23   29.96S
WAUTOMA        NOT AVBL
WISC RAPIDS    MOSUNNY   73  48  41 NW12G22   30.00R
CAMP DOUGLAS   NOT AVBL
$$

WIZ011>013-019>022-031-037>040-048>050-041700-
NORTHEAST WISCONSIN

CITY           SKY/WX    TMP DP  RH WIND       PRES   REMARKS
ANTIGO         PTSUNNY   67  51  56 NW12G23   29.97S
SHAWANO        MOSUNNY   73  54  51 W10G16    29.95S
OCONTO         MOSUNNY   69  56  63 NW6       29.93S
STURGEON BAY   PTSUNNY   66  55  68 NW7       29.96S
GREEN BAY      MOSUNNY   71  56  58 NW13      29.94F
MANITOWOC      NOT AVBL
APPLETON       PTSUNNY   70  50  49 NW10G18   29.96S
CLINTONVILLE   SUNNY     72  46  40 NW15G21   29.95S
OSHKOSH        MOSUNNY   72  54  53 NW12G20   29.96R
$$

WIZ032>034-041-042-053>061-041700-
SOUTHWEST WISCONSIN

CITY           SKY/WX    TMP DP  RH WIND       PRES   REMARKS
LA CROSSE      SUNNY     75  53  46 CALM      30.01R
SPARTA         SUNNY     73  49  42 SW5       30.01S
VIROQUA        SUNNY     71  51  48 NW5       30.03S
BOSCOBEL       MOSUNNY   78  53  41 VRB5      30.01F
PRAIRIE DU CHI PTSUNNY   73  50  45 NW5       30.02S
PLATTEVILLE    PTSUNNY   73  55  53 N5        30.03R
$$

WIZ056-057-062-063-064-067-068-041700-
SOUTH CENTRAL WISCONSIN

CITY           SKY/WX    TMP DP  RH WIND       PRES   REMARKS
REEDSBURG      SUNNY     74  51  45 NW8       30.00S
BARABOO/DELLS  SUNNY     73  46  39 N8        30.00S
LONE ROCK      NOT AVBL
MINERAL POINT  MOSUNNY   73  52  46 NW7       30.03R
MADISON        PTSUNNY   74  53  48 NW8       29.99S
MIDDLETON      SUNNY     74  52  45 NW8       30.01R
WATERTOWN      MOSUNNY   72  57  58 NW10      29.98S
MONROE         SUNNY     72  54  53 NW8       30.00S
JANESVILLE     SUNNY     75  55  50 NW8       29.98S
$$

WIZ051-052-058>065-066-070>072-041700-
SOUTHEAST WISCONSIN

CITY           SKY/WX    TMP DP  RH WIND       PRES   REMARKS
MILWAUKEE      MOSUNNY   77  52  41 W14G20    29.96R
WAUKESHA       MOSUNNY   73  52  46 W9        29.98S
MILWAUKEE/TIMM MOSUNNY   73  50  43 W13G20    29.97R
RACINE         SUNNY     78  54  43 W12       29.97S
BURLINGTON     SUNNY     75  53  45 W9G18     29.97S
KENOSHA        SUNNY     76  57  51 W14       29.97S
FOND DU LAC    MOSUNNY   72  56  57 NW14G21   29.97R
SHEBOYGAN      MOSUNNY   73  57  57 W9        29.95R
WEST BEND      SUNNY     72  54  53 W10       29.97R
JUNEAU         SUNNY     70  53  56 NW8       29.99R
$$

LSZ147-162-041700-
LAKE SUPERIOR

STATION/POSITION TIME  TEMP    WIND        PRES    WAVE
                       AIR SEA DIR/SP/G            HT/PER
                 (UTC) (F)     (DEG/KT/KT) (MB)    (FT/S)
W MID LAKE BUOY  1450   56 56  340/  6/  8 1013.9R   1
DEVILS ISLAND    1500   58     250/  8/ 11 1015.0R
PORT WING        1500   61     280/  5/  8 1015.2
SAXON HARBOR     1540   65     320/  7     1014.9R
$$

LMZ867-665-643>646-041700-
LAKE MICHIGAN

STATION/POSITION TIME  TEMP    WIND        PRES    WAVE
                       AIR SEA DIR/SP/G            HT/PER
                 (UTC) (F)     (DEG/KT/KT) (MB)    (FT/S)
CHAMBERS ISLAND  1500   67     360/  2/  3 1013.5R
S GREEN BAY BUOY 1500   65 71  260/  6/  6 1015.1R
N MID LAKE BUOY  1450   62 68  320/  8/  8 1012.9R   1/ 3
NORTHPORT PIER   1500   64     320/  3/  5 1013.2R
SISTER BAY       1518   69      10/  6/  7   N/A
ALGOMA LAKESHORE 1527          330/  9/ 12   N/A
KEWAUNEE LAKESHO 1500   68     310/  5/  9 1013.1R
SHEBOYGAN LAKESH 1500   66      20/ 10/ 10 1013.9S
PORT WASHINGTON  1500   74     310/  5/ 11 1014.6R
ATWATER BUOY     1500   65 52  290/  6/  8 1015.4R
MILWAUKEE LAKESH 1500   74     290/ 10/ 16   N/A
KENOSHA   LAKESH 1500   74     280/ 13/ 18 1014.2S
$$

TC  - TEMPERATURE IN CELSIUS
VSB - VISIBILITY IN STATUTE MILES
WCI - WIND CHILL INDEX
HX  - HEAT INDEX



USA.gov is the U.S. government's official web portal to all federal, state and local government web resources and services.